Location: Torrington
(42.0650°N, 104.1810°W)
Time: 17:12:47
(UTC-07:00)

Amateur Radio Satellites - All Passes

Search period start: 05 February 2016 16:42
Search period end: 06 February 2016 16:42
Location: Torrington, 42.0650°N, 104.1810°W

Satellite Date Start Highest point End Downlink Frequencies (MHz)
Time Altitude Azimuth
RS-15 05 Feb 16:44:33 16:53:25 24° 357° (N) 17:02:36 29.354- 29.394
GOMX 1 05 Feb 16:48:21 16:50:34 13° 60° (ENE) 16:52:45 467.674
YUBILEINY 05 Feb 16:49:09 16:54:53 20° 283° (WNW) 17:00:38 435.215
Cosmos 2491 05 Feb 16:51:24 16:59:21 38° 289° (WNW) 17:07:21 435.465 / 435.565
BRITE-PL 05 Feb 16:52:37 16:57:15 26° 66° (ENE) 17:01:50 437.365/2234.400
LilacSat-2 05 Feb 16:53:18 16:56:41 30° 70° (ENE) 17:00:03 437.200
CUBESAT XI-V 05 Feb 16:54:58 16:58:52 25° 94° (E) 17:02:46 437.345
STARS 05 Feb 17:06:38 17:09:41 19° 295° (WNW) 17:12:44 437.465
KKS-1 05 Feb 17:12:50 17:13:25 10° 301° (WNW) 17:14:00 437.445
BEESAT 3 05 Feb 17:14:04 17:16:38 17° 111° (ESE) 17:19:12 437.485
BEESAT 2 05 Feb 17:29:38 17:32:06 16° 110° (ESE) 17:34:35 435.950
Cosmos 2504 05 Feb 17:35:29 17:43:29 42° 274° (W) 17:51:03 435.465 / 435.565
CUTE-I 05 Feb 17:39:55 17:45:12 69° 257° (WSW) 17:50:32 437.470
ISS 05 Feb 17:45:07 17:48:22 82° 326° (NW) 17:51:38 145.825
Cubesat XI-IV 05 Feb 17:52:14 17:57:25 53° 260° (W) 18:02:39 437.490
O/OREOS (USA 219) 05 Feb 18:00:34 18:04:55 41° 62° (ENE) 18:09:16 437.305
HO-68 05 Feb 18:02:04 18:07:52 28° 59° (ENE) 18:13:41 435.675
GONETS M04 05 Feb 18:20:00 18:24:37 15° 57° (ENE) 18:29:13
GOMX 1 05 Feb 18:22:23 18:27:53 85° 77° (ENE) 18:33:13 467.674
CINEMA 3 05 Feb 18:23:02 18:25:59 17° 65° (ENE) 18:28:51 145.822/145.860
AO-85 05 Feb 18:24:03 18:27:14 16° 34° (NE) 18:30:17 145.980
CUTE 1.7 + AOD 2 05 Feb 18:25:17 18:28:09 18° 66° (ENE) 18:31:01 437.475
DOVE 4 05 Feb 18:28:12 18:33:14 53° 73° (ENE) 18:38:04 437.250
LilacSat-2 05 Feb 18:28:17 18:31:03 19° 266° (W) 18:33:49 437.200
BRITE-PL 05 Feb 18:29:55 18:35:24 48° 262° (W) 18:40:52 437.365/2234.400
CUBESAT XI-V 05 Feb 18:32:03 18:36:18 34° 291° (WNW) 18:40:30 437.345
COMPASS 1 05 Feb 18:35:43 18:37:40 13° 63° (ENE) 18:39:39 437.405
PCSat 05 Feb 18:37:48 18:39:06 11° 33° (NNE) 18:40:24 145.827
SEEDS 05 Feb 18:40:00 18:43:00 20° 66° (ENE) 18:46:02 437.485
AIST 2 05 Feb 18:48:29 18:49:55 12° 108° (ESE) 18:51:21 435.215
BEESAT 3 05 Feb 18:50:13 18:54:03 45° 308° (NW) 18:57:54 437.485
STRAND 1 05 Feb 18:53:13 18:58:15 51° 100° (E) 19:03:16 437.568
RS-15 05 Feb 19:00:10 19:10:55 35° 32° (NNE) 19:21:51 29.354- 29.394
PRISM 05 Feb 19:02:07 19:05:03 18° 93° (E) 19:07:57 437.425
CUBEBUG 2 05 Feb 19:02:51 19:05:16 15° 64° (ENE) 19:07:39 437.445
BEESAT 2 05 Feb 19:05:43 19:09:37 48° 307° (NW) 19:13:33 435.950
Cosmos 2499 05 Feb 19:07:16 19:10:07 12° 53° (NE) 19:12:54 435.465 / 435.565
AAUSAT CUBESAT 2 05 Feb 19:07:30 19:10:47 23° 68° (ENE) 19:14:06 437.432
CANX-2 05 Feb 19:07:59 19:12:07 59° 74° (ENE) 19:16:16 2200.000
UWE-3 05 Feb 19:14:01 19:16:12 14° 64° (ENE) 19:18:22 435.000/436.395/437.385
ISS 05 Feb 19:22:43 19:25:12 20° 344° (NNW) 19:27:44 145.825
Oscar 11 05 Feb 19:33:31 19:36:41 20° 66° (ENE) 19:39:52 145.826/435.025
O/OREOS (USA 219) 05 Feb 19:40:41 19:44:00 20° 259° (W) 19:47:21 437.305
HO-68 05 Feb 19:47:59 19:55:03 63° 257° (WSW) 20:02:13 435.675
CINEMA 3 05 Feb 19:58:06 20:02:45 54° 260° (W) 20:07:13 145.822/145.860
CUTE 1.7 + AOD 2 05 Feb 19:59:45 20:03:42 40° 262° (W) 20:07:41 437.475
AO-85 05 Feb 20:03:31 20:08:44 75° 55° (NE) 20:13:29 145.980
GOMX 1 05 Feb 20:04:10 20:06:29 13° 272° (W) 20:08:48 467.674
DOVE 4 05 Feb 20:07:31 20:11:09 19° 268° (W) 20:14:42 437.250
COMPASS 1 05 Feb 20:08:43 20:12:46 57° 259° (W) 20:16:53 437.405
GONETS M04 05 Feb 20:14:25 20:23:13 72° 80° (E) 20:32:01
SEEDS 05 Feb 20:14:39 20:18:28 36° 263° (W) 20:22:22 437.485
ZACube-1 05 Feb 20:16:46 20:20:49 44° 72° (ENE) 20:24:49 437.345
PCSat 05 Feb 20:18:35 20:23:53 49° 55° (NE) 20:29:07 145.827
AIST 2 05 Feb 20:23:41 20:27:50 69° 303° (WNW) 20:32:01 435.215
FUNcube-1 05 Feb 20:28:13 20:32:23 57° 74° (ENE) 20:36:29 145.935
STRAND 1 05 Feb 20:33:14 20:37:04 21° 297° (WNW) 20:40:52 437.568
PRISM 05 Feb 20:36:38 20:40:31 38° 290° (WNW) 20:44:23 437.425
CUBEBUG 2 05 Feb 20:37:11 20:41:30 54° 260° (W) 20:45:43 437.445
AAUSAT CUBESAT 2 05 Feb 20:42:34 20:46:10 29° 264° (W) 20:49:47 437.432
CANX-2 05 Feb 20:46:48 20:48:21 12° 270° (W) 20:49:55 2200.000
UWE-3 05 Feb 20:47:59 20:52:15 56° 260° (W) 20:56:25 435.000/436.395/437.385
Cosmos 2499 05 Feb 20:56:59 21:05:28 59° 77° (ENE) 21:13:18 435.465 / 435.565
DELFI C3 05 Feb 20:57:44 21:01:41 88° 253° (WSW) 21:05:42 145.870
ISS 05 Feb 21:00:31 21:02:34 15° 5° (N) 21:04:37 145.825
Oscar 11 05 Feb 21:08:36 21:12:35 37° 263° (W) 21:16:35 145.826/435.025
UKube-1 05 Feb 21:11:39 21:12:57 11° 60° (ENE) 21:14:16 .
RS-15 05 Feb 21:12:56 21:25:10 90° 56° (NE) 21:37:33 29.354- 29.394
DX 1 05 Feb 21:14:08 21:16:29 14° 62° (ENE) 21:18:50 434.975-435.025
HUMSAT D 05 Feb 21:15:49 21:19:51 59° 75° (ENE) 21:23:53 437.325/437.525
UNISAT 6 05 Feb 21:40:24 21:43:54 24° 95° (E) 21:47:25 437.425
AO-85 05 Feb 21:45:58 21:48:28 14° 255° (WSW) 21:50:52 145.980
VELOX 1 05 Feb 21:50:16 21:54:09 30° 68° (ENE) 21:58:03 145.980
ZACube-1 05 Feb 21:54:44 21:57:20 16° 268° (W) 21:59:54 437.345
PCSat 05 Feb 22:02:38 22:06:56 24° 253° (WSW) 22:11:14 145.827
50 SAT 05 Feb 22:05:37 22:09:11 48° 74° (ENE) 22:12:47 437.505
AISAT 05 Feb 22:05:37 22:09:53 45° 71° (ENE) 22:14:10 437.250
AIST 2 05 Feb 22:05:55 22:07:07 11° 324° (NW) 22:08:20 435.215
FUNcube-1 05 Feb 22:07:16 22:08:58 12° 270° (W) 22:10:41 145.935
ESTCUBE 1 05 Feb 22:08:53 22:13:15 52° 72° (ENE) 22:17:40 437.505/2401.250
GONETS M04 05 Feb 22:12:32 22:19:10 25° 280° (W) 22:25:49
AIST 1 05 Feb 22:15:05 22:19:29 80° 262° (W) 22:23:47
ANTELSAT 05 Feb 22:24:57 22:29:15 73° 102° (ESE) 22:33:37 437.575/2403.000
TIGRISAT 05 Feb 22:33:28 22:37:47 86° 107° (ESE) 22:42:09 435.000
ISS 05 Feb 22:36:46 22:39:45 32° 25° (NNE) 22:42:44 145.825
CUBEBUG 1 05 Feb 22:38:38 22:43:05 81° 75° (ENE) 22:47:33 437.445
UKube-1 05 Feb 22:44:03 22:48:22 77° 256° (WSW) 22:52:44 .
DX 1 05 Feb 22:47:52 22:52:12 59° 259° (W) 22:56:33 434.975-435.025
POLYITAN 1 05 Feb 22:48:06 22:51:50 31° 97° (E) 22:55:34 437.675
QB50P2 05 Feb 22:48:58 22:52:46 33° 97° (E) 22:56:34 145.880/145.840
Cosmos 2499 05 Feb 22:51:00 22:57:57 29° 278° (W) 23:04:32 435.465 / 435.565
HUMSAT D 05 Feb 22:54:44 22:55:52 11° 270° (W) 22:57:01 437.325/437.525
SPROUT 05 Feb 23:01:24 23:05:34 49° 73° (ENE) 23:09:44 437.525
UNISAT 6 05 Feb 23:16:51 23:20:38 31° 291° (WNW) 23:24:27 437.425
BUGSAT 1 05 Feb 23:17:07 23:20:44 30° 97° (E) 23:24:16 437.445
POPSAT HIP 1 05 Feb 23:19:41 23:23:53 70° 102° (ESE) 23:28:03 437.405
VELOX 1 05 Feb 23:26:51 23:30:36 26° 265° (W) 23:34:23 145.980
RS-15 05 Feb 23:27:02 23:36:06 26° 259° (W) 23:45:16 29.354- 29.394
NANOSAT C BR1 05 Feb 23:27:18 23:31:30 84° 100° (E) 23:35:42 145.865
TISAT 1 05 Feb 23:28:18 23:32:12 37° 71° (ENE) 23:36:06 437.305
DUCHIFAT 1 05 Feb 23:30:48 23:35:01 88° 103° (ESE) 23:39:11 145.980
QB50P1 05 Feb 23:32:46 23:37:00 81° 282° (WNW) 23:41:11 145.935-145.965
BEESAT 05 Feb 23:42:24 23:44:04 12° 59° (ENE) 23:45:45 436.000
50 SAT 05 Feb 23:42:27 23:43:31 11° 269° (W) 23:44:36 437.505
AISAT 05 Feb 23:43:37 23:46:36 17° 267° (W) 23:49:35 437.250
ESTCUBE 1 05 Feb 23:47:41 23:50:23 16° 269° (W) 23:53:06 437.505/2401.250
ANTELSAT 06 Feb 00:04:04 00:05:24 11° 298° (WNW) 00:06:45 437.575/2403.000
ISS 06 Feb 00:13:13 00:16:13 35° 222° (SW) 00:19:13 145.825
POLYITAN 1 06 Feb 00:24:13 00:27:31 23° 293° (WNW) 00:30:48 437.675
QB50P2 06 Feb 00:25:11 00:28:24 22° 294° (WNW) 00:31:37 145.880/145.840
SWISSCUBE 06 Feb 00:30:57 00:35:18 37° 69° (ENE) 00:39:42 437.505
Oscar 19 06 Feb 00:33:20 00:37:26 24° 94° (E) 00:41:30 437.125/150
SPROUT 06 Feb 00:39:22 00:41:49 15° 269° (W) 00:44:16 437.525
BUGSAT 1 06 Feb 00:52:51 00:55:57 21° 293° (WNW) 00:59:02 437.445
POPSAT HIP 1 06 Feb 00:57:47 00:59:05 11° 299° (WNW) 01:00:23 437.405
Cosmos 2491 06 Feb 01:04:11 01:11:00 24° 65° (ENE) 01:17:47 435.465 / 435.565
ITUPSAT 1 06 Feb 01:04:55 01:09:39 73° 74° (ENE) 01:14:26 437.325
TISAT 1 06 Feb 01:04:56 01:07:59 19° 266° (W) 01:11:03 437.305
DANDE 06 Feb 01:09:57 01:15:09 21° 79° (E) 01:20:49 436.750
CUSAT 1 06 Feb 01:12:17 01:19:07 36° 87° (E) 01:26:19 437.405
BEESAT 06 Feb 01:16:23 01:21:09 85° 255° (WSW) 01:25:57 436.000
JAS-2 06 Feb 01:25:22 01:31:04 48° 98° (E) 01:36:12 435.910
BEESAT 3 06 Feb 01:30:45 01:33:05 15° 41° (NE) 01:35:24 437.485
ITAMSAT 1 06 Feb 01:32:50 01:36:10 17° 91° (E) 01:39:28 435.822/435.867
BEESAT 2 06 Feb 01:46:55 01:49:13 15° 41° (NE) 01:51:30 435.950
MOZHAYETS 4 06 Feb 01:55:03 01:57:15 14° 62° (ENE) 01:59:30
YUBILEINY 06 Feb 01:58:31 02:04:21 20° 78° (ENE) 02:10:13 435.215
Gurwin Techsat 1B 06 Feb 02:06:54 02:12:13 67° 102° (ESE) 02:17:30 435.225
SWISSCUBE 06 Feb 02:09:24 02:13:12 24° 266° (W) 02:17:03 437.505
Oscar 19 06 Feb 02:12:05 02:16:55 42° 290° (WNW) 02:21:43 437.125/150
STARS 06 Feb 02:26:25 02:30:32 39° 70° (ENE) 02:34:39 437.465
AO-7 06 Feb 02:30:41 02:36:45 22° 92° (E) 02:42:43 29.400- 29.500
KKS-1 06 Feb 02:31:12 02:35:41 83° 75° (ENE) 02:40:11 437.445
ITUPSAT 1 06 Feb 02:46:11 02:48:01 12° 271° (W) 02:49:51 437.325
PHONESAT 2.4 06 Feb 02:48:20 02:51:14 29° 159° (SSE) 02:54:08 2401.200-2431.200
DANDE 06 Feb 02:49:35 02:56:56 86° 280° (W) 03:05:28 436.750
CUSAT 1 06 Feb 02:53:35 03:01:07 53° 286° (WNW) 03:09:05 437.405
Cosmos 2491 06 Feb 03:00:01 03:08:45 76° 266° (W) 03:17:28 435.465 / 435.565
BEESAT 3 06 Feb 03:07:20 03:11:18 68° 239° (WSW) 03:15:11 437.485
AIST 2 06 Feb 03:07:54 03:09:45 13° 38° (NE) 03:11:35 435.215
ITAMSAT 1 06 Feb 03:10:51 03:16:02 61° 288° (WNW) 03:21:11 435.822/435.867
JAS-2 06 Feb 03:11:08 03:15:45 24° 299° (WNW) 03:20:01 435.910
BEESAT 2 06 Feb 03:23:36 03:27:35 71° 240° (WSW) 03:31:32 435.950
MOZHAYETS 4 06 Feb 03:29:20 03:33:52 67° 259° (W) 03:38:26
Gurwin Techsat 1B 06 Feb 03:48:12 03:51:36 18° 299° (WNW) 03:55:01 435.225
HORYU 2 06 Feb 03:49:16 03:53:10 29° 97° (E) 03:57:03 437.375
YUBILEINY 06 Feb 03:51:11 03:59:58 84° 278° (W) 04:08:52 435.215
CUBESAT XI-V 06 Feb 03:58:43 04:02:36 27° 67° (ENE) 04:06:32 437.345
M-CUBED/EXP-1 PRIME 06 Feb 04:01:49 04:05:03 49° 106° (ESE) 04:08:26 437.505
STARS 06 Feb 04:03:52 04:07:03 19° 266° (W) 04:10:14 437.465
AUBIESAT-1 06 Feb 04:15:31 04:18:51 62° 107° (ESE) 04:22:21 437.475
Cosmos 2504 06 Feb 04:20:12 04:27:38 36° 84° (E) 04:35:22 435.465 / 435.565
AO-7 06 Feb 04:21:59 04:30:21 81° 291° (WNW) 04:38:39 29.400- 29.500
PHONESAT 2.4 06 Feb 04:25:01 04:28:16 64° 175° (S) 04:31:31 2401.200-2431.200
STRAND 1 06 Feb 04:35:27 04:36:14 10° 56° (ENE) 04:37:00 437.568
DANDE 06 Feb 04:35:45 04:41:15 21° 301° (WNW) 04:47:11 436.750
CUSAT 1 06 Feb 04:42:32 04:45:20 12° 306° (NW) 04:48:08 437.405
AIST 2 06 Feb 04:44:45 04:48:55 86° 59° (ENE) 04:53:01 435.215
Cosmos 2491 06 Feb 05:00:00 05:03:59 14° 286° (WNW) 05:07:58 435.465 / 435.565
SO-50 06 Feb 05:18:34 05:23:03 38° 116° (ESE) 05:27:38 436.795
HORYU 2 06 Feb 05:25:56 05:29:39 27° 293° (WNW) 05:33:21 437.375
CUBESAT XI-V 06 Feb 05:35:39 05:39:51 33° 264° (W) 05:44:06 437.345
M-CUBED/EXP-1 PRIME 06 Feb 05:38:59 05:39:23 10° 301° (WNW) 05:39:46 437.505
YUBILEINY 06 Feb 05:52:33 05:58:13 18° 300° (WNW) 06:03:57 435.215
PRISM 06 Feb 05:52:50 05:55:15 15° 63° (ENE) 05:57:41 437.425
CUTE-I 06 Feb 05:56:33 06:01:44 46° 99° (E) 06:06:53 437.470
LilacSat-2 06 Feb 06:00:12 06:03:48 42° 99° (E) 06:07:24 437.200
PHONESAT 2.4 06 Feb 06:02:14 06:05:26 52° 192° (SSW) 06:08:38 2401.200-2431.200
Cubesat XI-IV 06 Feb 06:08:48 06:14:09 60° 101° (E) 06:19:27 437.490
STRAND 1 06 Feb 06:09:25 06:14:30 76° 74° (ENE) 06:19:38 437.568
Cosmos 2504 06 Feb 06:12:25 06:20:39 53° 285° (WNW) 06:29:19 435.465 / 435.565
AO-7 06 Feb 06:16:21 06:21:54 20° 311° (NW) 06:27:25 29.400- 29.500
GOMX 1 06 Feb 06:25:23 06:28:54 22° 92° (E) 06:32:15 467.674
DOVE 4 06 Feb 06:29:35 06:30:49 11° 88° (E) 06:32:03 437.250
BRITE-PL 06 Feb 06:35:03 06:39:56 59° 100° (E) 06:44:24 437.365/2234.400
SO-50 06 Feb 06:59:14 07:03:38 32° 314° (NW) 07:08:04 436.795
HO-68 06 Feb 07:15:52 07:21:40 25° 93° (E) 07:27:24 435.675
GONETS M04 06 Feb 07:24:24 07:28:52 15° 75° (ENE) 07:33:20
PRISM 06 Feb 07:26:09 07:30:10 49° 260° (W) 07:34:15 437.425
LilacSat-2 06 Feb 07:35:45 07:37:47 14° 295° (WNW) 07:39:48 437.200
CUTE-I 06 Feb 07:37:13 07:41:29 25° 296° (WNW) 07:45:45 437.470
PHONESAT 2.4 06 Feb 07:40:01 07:42:20 18° 207° (SSW) 07:44:38 2401.200-2431.200
CUTE 1.7 + AOD 2 06 Feb 07:44:10 07:48:01 32° 96° (E) 07:51:51 437.475
Cubesat XI-IV 06 Feb 07:49:59 07:53:45 20° 298° (WNW) 07:57:31 437.490
COMPASS 1 06 Feb 07:51:47 07:55:04 22° 94° (E) 07:58:19 437.405
STRAND 1 06 Feb 07:52:01 07:54:15 13° 271° (W) 07:56:28 437.568
CINEMA 3 06 Feb 07:52:42 07:56:25 31° 96° (E) 08:00:06 145.822/145.860
SEEDS 06 Feb 07:57:56 08:01:50 34° 97° (E) 08:05:41 437.485
GOMX 1 06 Feb 08:02:59 08:07:07 34° 291° (WNW) 08:11:00 467.674
DOVE 4 06 Feb 08:04:46 08:09:04 61° 285° (WNW) 08:13:09 437.250
O/OREOS (USA 219) 06 Feb 08:13:14 08:17:28 43° 106° (ESE) 08:21:44 437.305
BRITE-PL 06 Feb 08:14:50 08:17:50 16° 299° (WNW) 08:20:41 437.365/2234.400
Cosmos 2504 06 Feb 08:14:52 08:16:30 11° 308° (NW) 08:18:09 435.465 / 435.565
AAUSAT CUBESAT 2 06 Feb 08:23:59 08:27:58 40° 98° (E) 08:31:55 437.432
CUBEBUG 2 06 Feb 08:27:46 08:31:21 27° 96° (E) 08:34:57 437.445
CANX-2 06 Feb 08:28:13 08:32:29 72° 284° (WNW) 08:36:45 2200.000
DELFI C3 06 Feb 08:37:24 08:38:55 12° 90° (E) 08:40:26 145.870
UWE-3 06 Feb 08:37:26 08:40:55 25° 95° (E) 08:44:26 435.000/436.395/437.385
UNISAT 6 06 Feb 08:40:02 08:43:26 23° 67° (ENE) 08:46:48 437.425
Oscar 11 06 Feb 08:55:05 08:59:08 37° 98° (E) 09:03:09 145.826/435.025
HO-68 06 Feb 09:02:43 09:09:49 63° 291° (WNW) 09:16:52 435.675
GONETS M04 06 Feb 09:15:31 09:24:10 81° 95° (E) 09:32:55
CUTE 1.7 + AOD 2 06 Feb 09:20:19 09:23:42 23° 293° (WNW) 09:27:05 437.475
ANTELSAT 06 Feb 09:24:05 09:28:24 67° 74° (ENE) 09:32:41 437.575/2403.000
COMPASS 1 06 Feb 09:26:55 09:30:41 32° 290° (WNW) 09:34:27 437.405
CINEMA 3 06 Feb 09:30:14 09:33:26 22° 293° (WNW) 09:36:35 145.822/145.860
TIGRISAT 06 Feb 09:32:22 09:36:44 79° 76° (ENE) 09:41:02 435.000
Cosmos 2499 06 Feb 09:32:34 09:40:42 49° 88° (E) 09:49:06 435.465 / 435.565
SEEDS 06 Feb 09:34:06 09:37:20 21° 293° (WNW) 09:40:34 437.485
ZACube-1 06 Feb 09:40:26 09:44:38 88° 275° (W) 09:48:53 437.345
POLYITAN 1 06 Feb 09:41:24 09:44:54 26° 68° (ENE) 09:48:25 437.675
QB50P2 06 Feb 09:42:11 09:45:46 27° 68° (ENE) 09:49:21 145.880/145.840
FUNcube-1 06 Feb 09:51:43 09:55:52 69° 285° (WNW) 10:00:05 145.935
O/OREOS (USA 219) 06 Feb 09:53:43 09:57:04 20° 305° (NW) 10:00:27 437.305
AAUSAT CUBESAT 2 06 Feb 10:00:17 10:03:10 18° 294° (WNW) 10:06:03 437.432
ESTCUBE 1 06 Feb 10:03:52 10:04:43 10° 89° (E) 10:05:34 437.505/2401.250
CUBEBUG 2 06 Feb 10:04:30 10:07:54 25° 292° (WNW) 10:11:20 437.445
BUGSAT 1 06 Feb 10:07:24 10:10:50 24° 68° (ENE) 10:14:14 437.445
DELFI C3 06 Feb 10:10:12 10:14:10 55° 286° (WNW) 10:18:07 145.870
POPSAT HIP 1 06 Feb 10:12:21 10:16:30 54° 73° (ENE) 10:20:39 437.405
UWE-3 06 Feb 10:13:50 10:17:21 27° 291° (WNW) 10:20:54 435.000/436.395/437.385
UNISAT 6 06 Feb 10:16:04 10:20:00 32° 263° (W) 10:23:54 437.425
AO-85 06 Feb 10:18:12 10:22:33 26° 111° (ESE) 10:27:03 145.980
NANOSAT C BR1 06 Feb 10:19:36 10:23:47 64° 74° (ENE) 10:27:58 145.865
DUCHIFAT 1 06 Feb 10:22:51 10:27:03 67° 74° (ENE) 10:31:15 145.980
QB50P1 06 Feb 10:25:17 10:29:32 78° 75° (ENE) 10:33:47 145.935-145.965
CUBEBUG 1 06 Feb 10:28:29 10:30:52 14° 91° (E) 10:33:13 437.445
Oscar 11 06 Feb 10:31:47 10:35:01 21° 294° (WNW) 10:38:16 145.826/435.025
UKube-1 06 Feb 10:31:57 10:34:47 17° 93° (E) 10:37:35 .
HUMSAT D 06 Feb 10:34:14 10:38:22 75° 285° (WNW) 10:42:33 437.325/437.525
DX 1 06 Feb 10:36:15 10:39:41 22° 95° (E) 10:43:04 434.975-435.025
AIST 1 06 Feb 10:44:25 10:48:44 58° 95° (E) 10:53:04
HO-68 06 Feb 10:53:08 10:56:07 13° 311° (NW) 10:59:06 435.675
PCSat 06 Feb 11:00:43 11:05:45 40° 112° (ESE) 11:10:48 145.827
ANTELSAT 06 Feb 11:04:30 11:05:33 11° 270° (W) 11:06:36 437.575/2403.000
50 SAT 06 Feb 11:10:32 11:14:19 64° 101° (ESE) 11:18:05 437.505
GONETS M04 06 Feb 11:15:36 11:22:03 23° 297° (WNW) 11:28:33
VELOX 1 06 Feb 11:15:46 11:20:08 55° 100° (E) 11:24:27 145.980
POLYITAN 1 06 Feb 11:16:59 11:20:39 27° 264° (W) 11:24:17 437.675
QB50P2 06 Feb 11:17:56 11:21:31 26° 264° (W) 11:25:07 145.880/145.840
Cosmos 2499 06 Feb 11:25:59 11:33:57 40° 289° (WNW) 11:42:13 435.465 / 435.565
AISAT 06 Feb 11:31:39 11:36:06 87° 99° (E) 11:40:30 437.250
RS-15 06 Feb 11:36:29 11:47:10 57° 113° (ESE) 11:58:25 29.354- 29.394
JAS-2 06 Feb 11:36:41 11:43:03 30° 63° (ENE) 11:49:00 435.910
ESTCUBE 1 06 Feb 11:37:29 11:42:04 76° 284° (WNW) 11:46:35 437.505/2401.250
BUGSAT 1 06 Feb 11:42:23 11:46:06 29° 264° (W) 11:49:47 437.445
DANDE 06 Feb 11:50:04 11:54:34 16° 55° (NE) 11:58:34 436.750
CUSAT 1 06 Feb 11:50:13 11:55:03 22° 61° (ENE) 11:59:05 437.405
Oscar 19 06 Feb 11:50:20 11:55:03 37° 68° (ENE) 11:59:46 437.125/150
POPSAT HIP 1 06 Feb 11:50:36 11:52:38 13° 269° (W) 11:54:38 437.405
Gurwin Techsat 1B 06 Feb 11:51:27 11:54:27 15° 60° (ENE) 11:57:27 435.225
AO-85 06 Feb 11:57:35 12:02:48 51° 309° (NW) 12:08:11 145.980
NANOSAT C BR1 06 Feb 11:58:47 11:59:56 11° 270° (W) 12:01:06 145.865
DUCHIFAT 1 06 Feb 12:02:24 12:03:11 10° 271° (W) 12:03:59 145.980
CUBEBUG 1 06 Feb 12:03:12 12:07:29 52° 288° (WNW) 12:11:42 437.445
UKube-1 06 Feb 12:06:56 12:11:03 43° 289° (WNW) 12:15:08 .
DX 1 06 Feb 12:12:00 12:15:56 33° 291° (WNW) 12:19:50 434.975-435.025
SPROUT 06 Feb 12:22:51 12:27:09 88° 284° (WNW) 12:31:24 437.525
AIST 1 06 Feb 12:24:41 12:26:45 13° 292° (WNW) 12:28:50
PCSat 06 Feb 12:44:23 12:49:13 32° 310° (NW) 12:54:05 145.827
TISAT 1 06 Feb 12:47:07 12:51:17 63° 101° (ESE) 12:55:24 437.305
50 SAT 06 Feb 12:47:33 12:47:50 10° 297° (WNW) 12:48:07 437.505
ITAMSAT 1 06 Feb 12:50:53 12:55:13 28° 65° (ENE) 12:59:35 435.822/435.867
VELOX 1 06 Feb 12:53:35 12:56:09 15° 297° (WNW) 12:58:42 145.980
ITUPSAT 1 06 Feb 13:06:01 13:09:19 18° 92° (E) 13:12:36 437.325
AISAT 06 Feb 13:11:33 13:11:53 10° 301° (WNW) 13:12:14 437.250
BEESAT 06 Feb 13:16:42 13:20:33 24° 94° (E) 13:24:22 436.000
JAS-2 06 Feb 13:19:56 13:27:38 62° 259° (W) 13:34:49 435.910
Gurwin Techsat 1B 06 Feb 13:28:26 13:33:44 77° 257° (WSW) 13:39:05 435.225
AO-7 06 Feb 13:29:56 13:37:10 34° 57° (ENE) 13:44:23 29.400- 29.500
Oscar 19 06 Feb 13:29:59 13:34:25 28° 265° (W) 13:38:51 437.125/150
DANDE 06 Feb 13:31:27 13:39:07 83° 79° (E) 13:44:59 436.750
CUSAT 1 06 Feb 13:31:48 13:38:04 55° 267° (W) 13:42:49 437.405
AO-85 06 Feb 13:42:11 13:44:39 13° 330° (NNW) 13:47:08 145.980
RS-15 06 Feb 13:49:07 13:59:53 49° 318° (NW) 14:11:17 29.354- 29.394
SO-50 06 Feb 13:49:34 13:54:07 39° 49° (NE) 13:58:31 436.795
YUBILEINY 06 Feb 14:01:01 14:09:35 51° 75° (ENE) 14:18:05 435.215
Cosmos 2491 06 Feb 14:07:01 14:13:50 27° 81° (E) 14:20:38 435.465 / 435.565
SWISSCUBE 06 Feb 14:07:51 14:12:41 85° 103° (ESE) 14:17:30 437.505
Cosmos 2504 06 Feb 14:14:00 14:17:53 13° 55° (NE) 14:21:40 435.465 / 435.565
KKS-1 06 Feb 14:23:11 14:25:45 15° 92° (E) 14:28:19 437.445
TISAT 1 06 Feb 14:24:42 14:26:26 12° 298° (WNW) 14:28:10 437.305
ITAMSAT 1 06 Feb 14:29:43 14:34:31 38° 262° (W) 14:39:22 435.822/435.867
ITUPSAT 1 06 Feb 14:42:46 14:47:26 49° 289° (WNW) 14:52:03 437.325
HORYU 2 06 Feb 14:47:50 14:51:39 29° 68° (ENE) 14:55:29 437.375
M-CUBED/EXP-1 PRIME 06 Feb 14:49:19 14:53:07 78° 70° (ENE) 14:56:39 437.505
BEESAT 06 Feb 14:54:00 14:58:25 38° 291° (WNW) 15:02:50 436.000
AUBIESAT-1 06 Feb 15:02:37 15:06:23 88° 253° (WSW) 15:09:55 437.475
JAS-2 06 Feb 15:12:43 15:13:43 10° 275° (W) 15:14:42 435.910
DANDE 06 Feb 15:16:26 15:20:40 17° 283° (WNW) 15:24:26 436.750
AO-7 06 Feb 15:21:16 15:29:29 60° 256° (WSW) 15:37:47 29.400- 29.500
MOZHAYETS 4 06 Feb 15:24:14 15:28:12 27° 95° (E) 15:32:10
SO-50 06 Feb 15:30:25 15:34:26 27° 247° (WSW) 15:38:20 436.795
CUTE-I 06 Feb 15:43:21 15:44:56 11° 56° (ENE) 15:46:31 437.470
SWISSCUBE 06 Feb 15:47:58 15:49:47 12° 301° (WNW) 15:51:36 437.505
STARS 06 Feb 15:51:19 15:55:42 74° 103° (ESE) 16:00:03 437.465
Cubesat XI-IV 06 Feb 15:54:28 15:57:16 15° 59° (ENE) 16:00:04 437.490
YUBILEINY 06 Feb 15:58:17 16:06:05 37° 275° (W) 16:13:51 435.215
KKS-1 06 Feb 15:58:19 16:02:37 51° 288° (WNW) 16:06:54 437.445
Cosmos 2491 06 Feb 16:01:15 16:09:54 67° 281° (W) 16:18:35 435.465 / 435.565
Cosmos 2504 06 Feb 16:04:37 16:13:20 65° 78° (ENE) 16:21:26 435.465 / 435.565
RS-15 06 Feb 16:07:17 16:16:17 24° 350° (N) 16:25:36 29.354- 29.394
BRITE-PL 06 Feb 16:11:02 16:12:47 11° 58° (ENE) 16:14:32 437.365/2234.400
HORYU 2 06 Feb 16:24:29 16:28:12 26° 264° (W) 16:31:55 437.375
